Vorticity
10 10 10 13 14 12 9 6 6 5 6 9 8 8 5 6 5 3 18 29 25 13 -1 -0 -0 -3 13 33 27 1 0 19 16 1 -2 5 8 6 9 11 8 6 8 8 6 8 5 3 9 8 6 8 10 9 6 10 8 10 17 9 4 2 -1 6 4 3 8 5 4 5 5 5 1 -2 2 7 7 6 5 4 5 5 5 5 6 7
12 11 10 11 12 13 13 10 11 7 8 9 7 8 3 6 3 -5 20 30 11 5 1 2 5 -7 1 31 25 -9 -6 24 30 15 1 8 17 14 18 17 9 8 6 6 7 7 6 5 6 6 8 8 9 8 6 10 10 16 19 3 5 10 -0 3 6 5 8 7 7 5 3 5 3 -1 1 7 7 6 7 7 8 7 6 6 6 7
14 14 10 10 11 13 13 12 12 10 13 11 9 10 4 15 16 10 36 24 -12 -2 7 7 12 -1 -3 21 20 -10 -13 11 23 11 -9 -2 13 7 2 1 4 6 2 7 9 3 3 5 5 7 8 7 9 10 9 10 6 7 7 -3 7 17 6 3 6 6 7 6 7 5 4 5 2 1 5 9 7 6 7 5 6 7 7 8 8 8
14 15 12 10 9 12 13 12 12 11 14 10 10 11 10 27 21 14 40 10 -34 -8 13 11 13 5 5 23 29 -1 -18 -3 4 -0 -4 -1 4 0 -5 -5 -0 -0 -1 7 7 3 5 2 1 4 7 6 3 3 7 7 3 7 13 10 12 13 8 6 5 6 7 5 6 7 8 5 4 8 7 4 4 2 3 4 5 8 9 10 9 10
11 12 13 11 10 11 12 13 13 10 12 8 7 8 15 31 9 -8 17 2 -19 11 26 14 3 -2 5 23 38 13 -11 1 -1 -5 7 8 2 4 8 5 -2 -3 -1 3 5 5 2 -1 4 7 8 8 1 0 8 5 1 9 18 17 15 16 15 9 4 6 8 6 8 10 9 9 16 19 7 1 4 3 3 6 6 7 9 10 10 10
10 11 10 11 12 11 10 11 11 10 11 11 12 15 20 26 13 -1 5 -3 3 28 29 17 5 -3 -5 2 25 20 -1 5 3 -4 1 3 4 6 11 13 7 9 8 5 10 5 -2 6 13 10 12 15 7 0 4 4 -2 -3 4 6 6 12 12 6 2 3 6 8 11 13 11 11 14 9 -0 3 9 7 6 7 8 10 10 9 9 7
9 12 10 12 13 11 12 9 9 11 10 13 16 26 33 22 11 10 5 -9 -5 11 9 6 7 10 4 -3 12 22 11 4 -1 -2 0 -0 6 10 12 12 6 7 7 7 11 4 3 11 10 9 18 19 10 3 5 10 7 3 4 6 7 11 13 12 9 3 4 8 9 10 11 12 13 12 12 14 10 8 9 10 11 11 10 10 10 7
10 12 11 13 10 7 13 10 14 21 23 29 22 24 33 13 -4 6 11 1 -7 1 9 7 3 -0 1 -3 -7 -3 5 10 4 5 10 3 1 3 -5 -8 -0 8 10 10 9 4 3 7 10 11 13 15 10 8 15 14 8 8 10 13 15 12 10 12 14 14 12 8 7 8 6 6 12 15 16 15 11 10 10 11 11 9 10 11 9 8
10 13 12 13 7 6 10 8 14 17 22 36 25 22 29 5 -10 -3 9 14 0 -4 8 14 13 7 9 13 9 5 -0 1 5 5 8 3 -3 0 -8 -9 8 13 8 8 8 5 1 7 19 11 7 24 21 15 32 28 14 16 13 12 13 6 7 9 13 21 20 14 12 9 5 8 13 13 11 11 11 11 11 9 9 9 9 8 6 6
7 11 11 8 5 6 5 3 12 13 14 25 14 18 30 13 2 -5 -3 14 8 -2 10 15 12 15 18 13 27 51 27 -4 4 7 1 -0 3 12 14 11 12 7 5 8 7 7 7 8 11 8 17 32 10 -5 12 6 -1 17 19 18 18 10 11 13 11 13 15 18 18 14 16 17 13 12 17 17 11 9 10 9 10 10 8 6 5 4
5 6 8 8 5 6 5 -1 7 13 13 18 12 15 23 20 21 9 -6 4 -1 -4 14 18 8 13 22 12 15 39 24 -1 10 13 4 6 9 16 21 17 12 8 9 9 7 11 15 10 8 15 27 26 5 -7 -6 -20 -17 11 19 12 11 8 7 10 10 4 -0 7 14 23 29 14 2 11 20 17 12 11 11 11 11 9 6 5 4 6
6 3 3 7 8 11 13 0 -0 12 14 16 17 15 15 17 26 18 -2 -5 -6 -7 4 10 12 14 21 27 22 11 3 7 11 4 2 3 0 6 11 7 4 9 12 9 6 8 12 13 13 15 8 4 9 9 7 9 15 26 26 9 -1 7 13 11 5 -5 -7 3 12 22 19 -2 -5 11 17 12 9 11 11 9 8 6 7 6 5 9
11 12 5 5 10 16 24 14 3 11 13 16 20 11 7 11 17 24 17 0 -11 -8 -2 -1 7 12 7 14 24 10 -5 2 6 2 5 7 4 6 7 5 7 15 19 13 5 8 16 15 12 11 5 7 16 7 4 22 20 5 10 18 12 12 15 8 1 -0 5 9 11 16 11 1 -0 0 3 8 8 6 6 5 5 7 8 6 8 12
10 16 8 2 4 7 17 19 12 11 8 14 18 6 4 8 4 13 26 17 -2 -6 -6 -12 -5 11 9 5 17 19 1 -7 5 11 8 10 12 11 9 9 10 9 11 12 8 13 22 17 11 10 8 12 14 3 2 18 14 -14 -10 19 21 10 10 9 7 9 11 10 10 15 14 13 11 2 3 11 8 4 4 3 4 7 8 7 11 13
7 10 6 3 2 2 6 13 18 17 7 6 12 9 7 9 3 -0 5 12 16 18 12 2 6 11 8 7 9 13 9 -1 5 11 7 3 2 8 18 20 16 9 9 15 12 11 14 12 13 11 5 6 7 6 5 10 16 2 -2 16 16 5 4 5 6 7 7 9 9 11 12 11 12 10 12 13 10 7 5 3 4 5 7 9 12 11
9 9 8 7 9 8 6 8 15 18 7 -0 12 26 18 0 -2 3 2 0 5 18 21 13 14 9 2 8 6 3 10 10 7 2 -1 -0 -6 -0 15 18 17 12 13 19 15 11 12 8 11 10 5 8 8 9 7 4 11 9 8 24 25 11 2 1 6 9 6 7 5 6 13 15 15 16 15 11 10 10 5 4 5 3 5 8 10 9
8 11 12 11 13 13 11 11 12 13 6 -2 6 27 29 10 1 4 12 14 -2 -1 16 13 7 7 2 6 11 8 8 9 9 4 -0 3 1 -2 2 9 13 9 13 20 12 11 15 10 13 10 2 7 7 5 4 2 10 8 4 21 24 10 8 7 6 8 7 7 6 4 3 8 17 21 16 7 2 5 6 8 8 3 2 4 9 10
5 6 7 7 9 11 18 21 14 4 3 3 5 13 18 15 12 4 7 24 14 -1 10 13 6 9 6 3 10 13 12 9 8 9 8 10 12 4 -4 0 6 5 11 14 12 30 37 16 7 7 5 7 3 4 6 4 14 11 -3 8 13 0 6 11 3 3 7 6 6 3 -5 -1 11 19 20 11 1 -1 1 6 10 9 5 5 11 12
3 4 6 8 6 3 12 22 18 9 5 7 8 9 10 7 8 8 5 14 18 8 6 8 8 10 6 4 7 11 13 8 0 1 6 9 14 13 7 5 1 -0 9 7 9 38 41 11 2 9 10 6 -1 4 7 -0 8 10 -3 9 22 8 3 11 8 3 3 4 8 7 2 4 7 12 20 19 8 2 -1 -0 6 10 8 8 11 11
5 4 4 8 7 1 6 14 17 15 14 12 4 3 14 12 1 4 7 7 8 8 8 8 9 11 9 8 9 12 18 17 10 10 12 10 10 12 13 13 4 4 16 11 2 12 11 -3 0 6 4 3 1 0 1 -0 7 9 1 11 23 10 -1 8 14 7 0 -0 3 5 8 7 0 -1 9 17 14 7 3 3 3 6 10 8 7 7
7 6 6 9 9 5 5 9 11 9 11 14 4 -5 8 18 7 0 3 5 5 5 9 12 10 9 10 9 6 5 8 14 18 18 17 15 12 9 9 8 5 9 17 13 3 1 -0 -2 1 1 -1 1 1 -1 7 22 25 15 9 12 8 -6 -9 2 10 8 3 1 1 2 3 1 -6 -12 -6 9 16 10 10 14 9 8 12 9 7 6
6 4 6 9 10 9 4 4 11 8 3 6 2 -4 3 13 15 11 4 1 4 4 4 11 14 9 6 9 12 6 -2 0 7 7 7 9 9 9 12 13 13 10 9 11 13 9 5 3 3 2 -0 -2 -1 -0 3 6 -1 -8 -2 5 -0 -6 1 13 16 12 9 8 8 8 8 10 9 3 2 7 10 10 16 22 13 6 5 2 4 5
8 7 8 8 5 7 3 2 8 6 2 5 3 3 8 9 13 17 12 6 6 5 1 4 12 12 5 2 6 8 5 6 5 -1 1 7 6 8 13 16 16 13 8 10 12 5 1 5 7 7 4 -2 -2 1 -1 -7 -10 -5 1 2 2 3 7 9 6 6 8 5 4 6 6 9 11 14 17 15 8 7 11 11 4 -2 -2 2 8 8
6 3 10 15 7 5 8 8 8 7 10 13 4 0 6 8 9 10 11 12 10 10 10 7 7 9 5 -0 0 2 3 4 3 1 5 9 6 7 11 11 12 13 10 9 14 14 9 11 10 4 3 3 2 3 2 -0 2 7 5 3 7 8 8 8 5 10 19 14 8 10 8 8 13 17 21 22 21 18 12 8 5 2 4 10 15 13
8 -0 2 15 12 5 5 5 7 10 14 13 5 2 2 4 6 2 2 7 5 7 13 11 10 10 7 3 1 -0 0 4 8 9 10 9 7 9 16 19 16 15 12 10 17 20 15 10 4 -1 5 10 8 5 3 3 5 7 5 7 10 6 5 11 11 19 30 17 3 13 18 12 11 9 6 9 13 12 8 7 10 9 10 14 16 14
6 3 -1 6 12 11 1 -6 -1 10 15 9 4 5 2 1 5 4 4 7 2 -2 -1 -4 -3 3 6 6 3 -1 -0 2 3 8 16 19 17 11 8 11 10 9 11 8 3 6 14 20 14 10 12 10 8 11 10 8 9 12 11 8 8 10 14 19 14 17 28 15 2 21 31 19 14 16 14 10 6 4 4 6 10 11 12 14 15 12
6 5 -0 -2 6 18 14 1 -2 0 2 4 7 10 5 -1 1 3 6 13 12 5 1 -0 -1 -2 -2 3 5 4 5 4 2 9 11 5 9 14 13 15 16 13 13 14 11 6 6 13 16 12 11 15 23 27 20 12 7 8 10 9 14 18 14 15 16 14 20 14 8 25 31 16 15 18 11 8 10 12 13 13 15 13 11 14 14 11
14 7 10 10 9 15 19 17 14 3 -9 -12 -8 1 6 5 5 2 -1 4 10 9 8 10 12 11 6 5 6 4 8 11 9 13 11 -2 3 20 21 15 13 13 12 12 12 2 -13 -7 6 6 5 12 16 12 11 16 13 6 6 9 12 7 -0 12 21 8 -2 -4 1 18 19 0 -0 7 4 6 13 16 17 17 16 14 12 13 11 8
12 12 19 19 13 12 14 16 18 16 11 8 2 -0 4 7 6 3 -2 -1 5 7 5 3 5 10 9 7 7 4 5 7 -3 -7 1 2 3 12 14 7 3 3 3 1 -0 -2 -4 4 10 5 0 -2 -10 -13 -4 6 6 6 10 11 7 1 5 17 10 -9 -4 13 19 21 10 -9 -4 12 11 5 6 10 14 15 14 13 11 11 9 8
12 21 27 17 4 5 10 10 6 3 11 25 30 23 17 12 5 1 -3 -4 -2 0 3 5 6 7 7 7 9 5 1 5 5 1 3 3 1 1 1 3 4 3 3 3 2 3 6 9 11 8 8 7 3 5 7 3 3 7 9 6 1 3 9 7 -7 -9 12 25 13 2 -8 -16 -7 7 7 6 10 13 11 9 13 17 13 10 11 11
13 17 28 24 11 5 7 11 10 5 1 8 14 13 13 14 11 10 7 1 -2 -3 1 8 8 6 8 10 12 12 5 2 7 14 16 16 16 10 3 7 12 14 16 15 12 11 11 10 10 9 9 8 8 11 10 9 11 10 8 7 6 7 8 2 -1 5 9 2 -8 -4 4 4 7 13 16 17 13 8 6 6 9 15 14 11 11 9
20 15 15 16 16 15 13 12 13 14 11 8 6 0 0 3 4 11 19 19 12 3 -1 6 12 14 19 18 15 16 16 11 5 2 2 4 5 4 7 14 16 15 16 15 12 11 11 10 10 9 8 7 6 6 6 7 7 5 6 8 7 6 7 5 6 8 9 8 9 13 16 13 11 12 10 6 3 9 18 17 10 10 10 9 8 6
15 20 18 12 11 15 16 15 16 16 17 19 20 16 15 12 5 3 8 11 10 4 2 7 11 11 15 19 17 11 7 9 9 3 -1 0 0 -1 0 6 12 14 13 13 12 10 8 9 9 8 8 7 6 7 7 7 5 4 4 4 4 7 10 10 10 7 7 9 10 9 9 9 11 10 7 5 8 13 12 1 -2 4 4 2 4 5
-4 1 9 13 16 15 11 10 11 9 11 17 20 20 22 25 24 18 12 9 6 3 4 5 -0 -9 -8 7 23 26 20 14 12 7 4 3 4 3 0 -1 6 12 12 11 10 9 8 8 8 7 6 6 6 6 6 6 6 5 3 4 7 8 7 6 5 4 4 3 3 3 3 3 4 4 5 6 7 6 1 -6 -3 6 5 1 4 7
1 -3 -5 1 17 22 15 15 15 10 9 11 11 13 16 20 26 29 27 25 23 19 14 11 3 -3 5 23 33 28 18 12 9 8 8 8 7 8 6 -0 -2 2 8 11 9 7 8 7 6 7 7 4 3 4 5 6 7 5 1 1 3 6 7 5 3 2 3 2 1 1 1 1 1 1 3 3 3 3 4 3 4 7 5 3 5 6
18 16 5 1 7 4 -1 8 18 17 13 8 7 15 20 18 19 23 23 22 22 22 20 16 15 12 8 11 13 5 -2 -1 1 1 1 4 9 11 11 8 5 6 10 11 9 7 6 6 6 7 6 4 3 4 4 2 0 -1 -0 3 6 7 5 4 3 2 1 1 1 1 1 1 1 2 4 5 5 5 5 5 6 5 5 5 3 2
22 24 18 13 9 1 -2 5 12 15 12 2 -1 4 6 4 4 6 12 15 15 23 29 27 30 34 22 2 -4 -0 4 6 10 10 7 6 10 11 11 10 10 9 9 9 10 8 6 6 6 4 3 3 4 7 9 10 8 4 2 2 4 5 5 4 4 4 4 4 4 3 2 2 2 3 4 6 8 8 8 9 8 4 3 4 3 2
10 12 12 12 12 12 14 14 10 11 10 4 3 5 4 7 11 8 7 8 7 17 26 20 15 25 27 14 3 3 6 4 3 4 2 1 3 5 7 8 8 9 9 6 6 5 4 6 6 4 4 2 -0 0 2 7 15 18 16 13 7 4 5 2 0 2 3 3 4 3 2 2 2 2 4 7 8 6 6 7 5 3 3 3 5 9
2 2 5 8 7 7 12 14 12 13 11 5 5 7 4 9 21 25 22 16 6 -3 -2 6 14 20 23 22 19 17 18 19 19 16 12 11 10 9 7 5 3 4 5 4 5 5 5 5 4 4 4 2 2 2 -2 -3 1 5 11 19 20 17 15 11 6 5 5 3 4 5 4 5 6 7 8 8 7 6 6 6 4 5 6 6 11 18
8 4 2 2 3 5 8 9 8 10 12 10 6 3 -3 -5 1 8 13 17 16 8 0 2 7 7 8 15 19 16 14 18 24 26 27 28 28 25 20 16 13 10 7 4 2 1 2 3 3 3 4 2 3 5 4 2 0 -3 -3 5 10 14 20 21 17 15 12 8 6 6 7 8 10 10 9 6 4 3 3 2 2 6 8 6 7 10
14 19 18 18 19 20 16 9 4 2 5 10 13 11 6 -0 -5 -5 -2 1 5 12 16 11 1 -5 -3 5 9 8 8 11 12 12 12 13 13 15 17 19 20 21 20 19 17 13 9 7 4 3 3 3 3 3 3 2 2 1 -3 -5 -5 -3 2 7 11 14 17 17 18 20 19 17 16 15 14 13 12 11 11 12 13 16 16 14 11 9
11 21 21 14 11 15 16 12 11 10 6 5 9 14 15 10 4 1 2 2 1 3 6 7 7 8 9 8 8 8 7 6 5 7 11 11 9 8 8 8 9 10 12 15 18 20 20 19 17 15 12 10 8 7 7 6 5 5 2 -0 -2 -4 -8 -9 -8 -6 -2 1 5 8 7 6 7 8 6 6 8 10 10 9 10 10 9 7 4 3
3 3 -7 -17 -17 -6 5 8 9 12 13 8 4 6 9 10 10 8 6 6 9 9 5 2 4 8 6 4 5 4 2 1 1 4 8 11 11 12 11 10 9 8 7 7 7 10 13 15 17 18 17 16 14 11 11 10 9 9 9 9 9 9 8 6 3 2 2 2 2 1 -0 -1 -1 -1 -3 -5 -4 -2 -1 -0 2 4 3 1 -3 -6
11 8 -0 -2 -0 1 7 12 11 10 15 16 12 8 6 4 5 8 10 12 15 16 12 5 4 8 7 5 4 2 2 2 3 4 5 5 5 7 8 8 9 10 12 13 11 9 9 8 9 10 10 11 12 11 10 10 10 11 10 10 10 12 13 13 13 13 13 12 12 13 13 13 11 9 8 6 5 5 3 1 0 1 3 7 6 2
12 11 6 9 13 9 7 12 13 10 10 13 13 14 13 9 6 7 10 13 14 15 12 5 3 4 5 6 10 11 10 8 6 4 4 2 1 2 4 6 9 9 9 10 10 10 10 9 8 7 7 7 8 8 8 8 8 8 8 7 8 8 8 9 9 10 10 10 11 10 10 11 12 12 13 14 14 13 11 10 8 4 3 5 7 8
12 12 8 7 9 10 9 9 10 10 9 8 7 9 12 14 13 13 12 8 5 7 10 11 11 9 5 5 8 11 13 14 13 10 8 6 6 6 4 4 6 6 5 5 6 6 6 7 7 7 8 8 7 7 7 7 7 7 7 7 7 6 7 7 7 8 8 7 7 7 7 7 7 8 9 9 10 11 11 12 12 11 9 8 8 9
15 17 17 15 14 14 14 12 10 9 8 8 8 7 7 8 8 7 8 7 6 5 5 4 3 3 3 5 6 6 8 9 9 10 12 12 12 11 7 3 4 5 4 4 6 7 7 7 7 8 8 8 8 8 7 7 7 6 6 6 6 6 7 7 6 6 4 3 2 2 2 2 2 3 5 5 6 7 8 8 8 8 8 8 7 7
12 13 15 15 15 16 16 17 18 17 16 16 16 12 9 8 7 5 3 3 3 3 2 1 -0 0 3 6 5 4 4 5 5 6 7 7 8 9 6 3 4 5 3 3 6 7 6 5 5 5 6 5 5 6 6 4 4 5 6 7 8 6 5 3 1 0 0 1 3 4 5 6 7 7 7 7 7 7 7 7 8 8 8 8 8 8
11 11 10 8 9 10 9 10 13 16 17 19 21 22 21 18 15 14 11 8 7 7 7 7 5 4 4 4 4 3 4 6 7 8 7 7 7 7 7 8 10 9 7 7 7 6 6 8 8 8 8 6 5 5 4 3 3 4 5 5 4 1 -0 -1 0 2 4 6 8 8 9 9 8 8 8 8 8 8 8 8 7 8 9 10 12 12
14 14 13 12 12 12 12 12 11 12 14 16 18 21 23 24 24 23 21 19 18 17 17 17 16 14 12 10 8 7 7 7 7 7 7 8 10 12 12 12 11 10 11 12 13 13 13 13 12 12 11 11 10 9 7 5 6 6 5 5 4 3 4 5 7 10 11 11 11 11 11 10 11 11 11 11 11 12 14 16 17 16 16 16 17 20
18 17 16 15 14 14 15 15 15 14 14 14 14 14 15 17 19 20 22 24 24 23 23 23 23 24 24 23 21 18 15 13 11 10 8 6 7 9 9 5 2 0 -0 1 2 2 1 2 3 4 4 4 5 6 6 8 9 10 11 12 11 11 11 12 13 14 14 14 15 15 16 17 18 18 19 21 23 23 23 25 27 28 28 26 24 25
Height
5722 5724 5726 5729 5731 5732 5733 5734 5735 5737 5738 5740 5741 5741 5742 5743 5744 5746 5750 5754 5756 5755 5756 5758 5759 5760 5764 5767 5769 5770 5770 5771 5771 5771 5771 5771 5771 5772 5774 5778 5781 5784 5785 5786 5786 5786 5785 5784 5785 5785 5784 5783 5782 5780 5777 5777 5780 5782 5784 5785 5786 5787 5788 5789 5791 5792 5792 5793 5794 5795 5795 5796 5797 5797 5797 5798 5798 5798 5799 5800 5800 5800 5801 5801 5801 5801
5719 5722 5725 5727 5728 5729 5730 5731 5732 5734 5735 5737 5738 5738 5739 5740 5741 5744 5748 5752 5754 5754 5755 5757 5759 5760 5762 5765 5767 5768 5767 5767 5768 5768 5769 5770 5771 5772 5773 5776 5780 5782 5783 5783 5783 5783 5782 5781 5781 5780 5778 5776 5777 5777 5776 5778 5780 5782 5783 5784 5786 5787 5788 5789 5790 5791 5791 5792 5794 5795 5795 5796 5796 5796 5797 5797 5797 5797 5798 5799 5799 5799 5799 5799 5800 5800
5718 5721 5723 5724 5724 5725 5726 5728 5729 5731 5733 5734 5735 5736 5737 5739 5742 5745 5747 5750 5753 5754 5754 5756 5758 5760 5761 5763 5766 5766 5765 5766 5766 5768 5769 5770 5770 5771 5772 5774 5778 5780 5781 5781 5781 5781 5778 5775 5773 5774 5773 5773 5774 5776 5776 5777 5779 5781 5782 5784 5785 5787 5788 5790 5790 5790 5790 5791 5792 5793 5794 5794 5795 5795 5795 5796 5797 5798 5799 5799 5799 5799 5799 5799 5799 5799
5717 5719 5719 5720 5721 5722 5724 5725 5727 5728 5730 5731 5732 5734 5736 5740 5743 5744 5747 5750 5751 5752 5753 5755 5757 5758 5760 5761 5763 5764 5765 5765 5767 5769 5770 5768 5768 5769 5770 5773 5776 5778 5779 5779 5779 5776 5771 5769 5770 5772 5773 5774 5775 5775 5775 5776 5778 5780 5781 5782 5783 5785 5786 5788 5788 5789 5789 5790 5791 5791 5792 5793 5793 5794 5794 5795 5797 5799 5799 5798 5798 5798 5798 5798 5797 5797
5715 5716 5716 5717 5719 5720 5721 5723 5724 5726 5727 5728 5730 5732 5736 5739 5740 5741 5744 5746 5748 5749 5750 5753 5755 5755 5756 5758 5760 5762 5763 5764 5766 5768 5768 5766 5765 5766 5768 5770 5774 5776 5777 5777 5775 5770 5767 5768 5773 5773 5773 5775 5775 5774 5775 5775 5776 5778 5779 5780 5780 5781 5782 5784 5785 5787 5787 5788 5789 5790 5791 5792 5792 5793 5794 5795 5797 5798 5798 5797 5797 5796 5796 5796 5796 5795
5713 5713 5714 5715 5717 5718 5719 5721 5722 5723 5724 5726 5728 5731 5734 5738 5739 5739 5741 5742 5744 5747 5749 5750 5752 5753 5753 5755 5758 5760 5761 5762 5763 5765 5765 5764 5763 5764 5766 5768 5771 5773 5774 5773 5770 5767 5766 5769 5773 5772 5771 5772 5772 5773 5773 5772 5773 5775 5776 5777 5777 5778 5778 5780 5782 5784 5785 5787 5788 5789 5790 5791 5792 5793 5793 5795 5795 5796 5795 5795 5795 5794 5794 5795 5794 5794
5710 5710 5712 5713 5714 5716 5717 5718 5719 5721 5722 5724 5727 5729 5731 5736 5738 5738 5739 5740 5741 5744 5746 5747 5749 5751 5752 5753 5756 5758 5759 5761 5762 5762 5761 5761 5761 5763 5765 5767 5768 5769 5768 5767 5766 5764 5764 5769 5770 5769 5769 5769 5768 5769 5770 5769 5770 5773 5774 5775 5776 5776 5777 5778 5780 5782 5783 5785 5786 5787 5788 5789 5790 5791 5792 5793 5793 5793 5793 5793 5793 5793 5793 5793 5793 5793
5708 5708 5710 5711 5712 5713 5715 5716 5717 5719 5719 5721 5724 5726 5729 5733 5736 5737 5738 5739 5739 5740 5742 5743 5746 5749 5750 5750 5754 5757 5758 5759 5760 5760 5759 5758 5759 5761 5763 5764 5765 5764 5764 5764 5764 5762 5763 5767 5768 5767 5766 5766 5766 5767 5768 5768 5769 5771 5773 5774 5775 5775 5777 5778 5779 5780 5782 5783 5784 5785 5786 5787 5787 5788 5790 5791 5791 5791 5792 5792 5792 5792 5791 5791 5792 5792
5706 5707 5708 5709 5710 5711 5713 5715 5716 5716 5717 5719 5722 5723 5726 5729 5733 5735 5736 5737 5738 5738 5738 5740 5742 5744 5747 5749 5751 5754 5755 5756 5757 5757 5757 5756 5757 5759 5760 5760 5761 5760 5761 5762 5761 5761 5763 5765 5765 5765 5763 5762 5765 5767 5767 5768 5769 5770 5771 5773 5773 5775 5776 5777 5778 5779 5780 5782 5783 5784 5785 5786 5787 5787 5788 5789 5789 5789 5790 5790 5791 5791 5791 5791 5790 5790
5703 5705 5707 5707 5708 5710 5712 5714 5714 5715 5717 5718 5719 5721 5723 5726 5728 5731 5734 5735 5736 5735 5736 5737 5739 5741 5743 5746 5748 5749 5751 5754 5756 5756 5755 5754 5755 5756 5756 5757 5758 5758 5758 5760 5760 5760 5762 5762 5762 5762 5761 5761 5765 5767 5766 5767 5768 5769 5769 5770 5772 5773 5774 5776 5777 5778 5779 5781 5781 5782 5783 5785 5785 5786 5787 5787 5788 5788 5788 5789 5790 5790 5790 5789 5789 5788
5701 5703 5704 5705 5706 5709 5711 5712 5713 5714 5716 5716 5716 5719 5722 5723 5725 5727 5730 5733 5732 5732 5733 5735 5737 5738 5739 5743 5745 5746 5747 5751 5753 5753 5752 5751 5752 5753 5753 5753 5755 5755 5756 5758 5758 5758 5759 5759 5759 5759 5759 5761 5764 5766 5766 5766 5766 5766 5767 5769 5770 5771 5773 5774 5775 5777 5778 5779 5779 5779 5780 5782 5783 5784 5785 5786 5786 5787 5787 5788 5788 5789 5789 5789 5788 5787
5699 5701 5702 5703 5705 5707 5709 5710 5711 5713 5714 5714 5715 5718 5721 5722 5724 5725 5727 5729 5728 5729 5731 5734 5737 5736 5737 5741 5742 5743 5745 5747 5749 5749 5749 5749 5749 5750 5748 5748 5752 5753 5754 5755 5756 5756 5757 5757 5757 5757 5758 5761 5763 5764 5765 5765 5765 5765 5766 5768 5769 5770 5771 5772 5773 5774 5775 5776 5777 5777 5778 5780 5781 5782 5783 5784 5785 5785 5785 5786 5787 5787 5787 5788 5787 5786
5698 5699 5701 5702 5703 5705 5707 5708 5709 5711 5712 5713 5714 5716 5718 5720 5722 5723 5725 5725 5725 5728 5731 5733 5736 5735 5736 5739 5740 5741 5742 5744 5746 5746 5747 5747 5748 5747 5745 5746 5750 5751 5751 5752 5752 5753 5754 5755 5756 5756 5758 5760 5762 5762 5763 5764 5764 5764 5765 5767 5768 5768 5769 5770 5771 5772 5773 5774 5775 5776 5777 5778 5779 5781 5781 5782 5782 5782 5783 5783 5784 5785 5785 5785 5785 5785
5696 5698 5698 5699 5701 5704 5705 5706 5708 5709 5710 5712 5713 5714 5715 5718 5720 5721 5723 5724 5725 5728 5730 5732 5734 5734 5734 5736 5737 5739 5740 5741 5743 5744 5745 5746 5746 5746 5745 5746 5747 5747 5749 5750 5749 5751 5752 5752 5754 5755 5756 5757 5758 5759 5760 5762 5763 5764 5765 5765 5766 5766 5767 5768 5770 5771 5772 5773 5774 5775 5776 5777 5778 5779 5779 5779 5779 5779 5780 5780 5781 5782 5782 5783 5783 5783
5694 5695 5696 5698 5700 5702 5704 5705 5707 5708 5709 5710 5712 5713 5715 5716 5718 5720 5721 5723 5725 5726 5728 5731 5732 5731 5732 5732 5734 5738 5738 5738 5740 5741 5742 5743 5744 5745 5744 5744 5744 5745 5748 5748 5748 5748 5749 5750 5751 5751 5752 5753 5755 5756 5758 5760 5761 5762 5763 5764 5765 5765 5766 5767 5769 5770 5771 5772 5772 5773 5774 5774 5775 5776 5777 5776 5776 5776 5777 5778 5779 5779 5780 5781 5781 5781
5692 5693 5696 5697 5698 5700 5702 5704 5705 5706 5707 5709 5710 5711 5712 5715 5717 5718 5719 5721 5722 5723 5726 5728 5728 5728 5729 5730 5732 5735 5736 5736 5737 5738 5738 5740 5742 5743 5742 5742 5743 5744 5746 5746 5746 5746 5745 5746 5748 5748 5749 5751 5753 5754 5756 5758 5759 5760 5762 5763 5764 5766 5767 5767 5768 5769 5769 5770 5770 5771 5772 5772 5773 5774 5774 5774 5774 5775 5775 5776 5776 5777 5778 5779 5779 5779
5690 5691 5694 5696 5697 5698 5700 5702 5703 5704 5705 5706 5708 5709 5711 5713 5715 5717 5718 5719 5720 5721 5723 5725 5725 5725 5726 5727 5729 5731 5732 5733 5734 5734 5735 5737 5740 5740 5740 5740 5742 5743 5744 5744 5744 5743 5742 5743 5745 5747 5749 5751 5752 5753 5754 5755 5757 5758 5759 5761 5764 5766 5766 5766 5767 5767 5767 5768 5768 5769 5770 5771 5771 5772 5772 5772 5773 5773 5773 5774 5774 5775 5776 5776 5777 5778
5688 5689 5691 5693 5695 5696 5698 5700 5701 5702 5704 5706 5707 5709 5711 5712 5713 5714 5715 5716 5717 5719 5721 5722 5723 5723 5724 5725 5725 5727 5729 5731 5731 5731 5733 5735 5737 5738 5739 5740 5742 5742 5742 5742 5741 5740 5740 5742 5745 5747 5748 5749 5751 5752 5753 5754 5755 5756 5757 5759 5762 5763 5764 5764 5765 5765 5765 5766 5766 5767 5768 5769 5770 5770 5770 5771 5771 5772 5772 5772 5772 5773 5774 5774 5775 5776
5685 5686 5689 5691 5693 5694 5695 5697 5699 5700 5702 5704 5706 5707 5709 5710 5711 5711 5712 5713 5714 5717 5718 5719 5720 5720 5722 5722 5721 5724 5727 5728 5728 5730 5732 5733 5734 5736 5738 5739 5740 5741 5741 5740 5740 5740 5741 5743 5745 5746 5746 5747 5749 5751 5752 5753 5753 5754 5755 5756 5758 5760 5761 5762 5762 5763 5763 5764 5764 5765 5766 5767 5768 5768 5768 5769 5770 5770 5770 5770 5770 5771 5772 5772 5773 5774
5682 5683 5686 5689 5690 5691 5693 5694 5697 5699 5701 5703 5704 5704 5706 5708 5708 5709 5710 5711 5712 5714 5715 5715 5716 5716 5718 5719 5720 5722 5725 5726 5727 5729 5730 5730 5730 5732 5734 5735 5736 5738 5740 5740 5741 5742 5741 5742 5743 5743 5744 5745 5747 5749 5751 5751 5751 5752 5753 5753 5755 5757 5758 5758 5759 5760 5761 5762 5763 5764 5765 5766 5766 5766 5767 5767 5767 5767 5768 5768 5768 5769 5769 5770 5771 5772
5678 5679 5682 5686 5688 5689 5690 5691 5695 5698 5700 5701 5702 5702 5703 5705 5705 5706 5708 5709 5710 5711 5711 5712 5713 5714 5716 5717 5717 5720 5724 5725 5726 5727 5727 5727 5727 5728 5731 5732 5732 5734 5737 5738 5739 5739 5737 5737 5739 5740 5741 5743 5745 5747 5749 5749 5750 5751 5751 5751 5752 5754 5756 5756 5758 5759 5760 5761 5761 5762 5763 5764 5764 5764 5764 5765 5765 5765 5765 5765 5766 5766 5767 5768 5768 5769
5675 5675 5679 5683 5686 5686 5686 5688 5691 5693 5695 5697 5699 5700 5701 5702 5703 5703 5705 5706 5708 5708 5708 5710 5711 5711 5713 5715 5715 5718 5722 5723 5723 5724 5725 5725 5725 5725 5727 5729 5729 5729 5731 5733 5734 5734 5733 5735 5737 5738 5737 5739 5742 5744 5746 5747 5748 5748 5749 5750 5750 5752 5754 5755 5756 5757 5758 5758 5758 5759 5760 5760 5761 5761 5762 5762 5763 5763 5763 5763 5763 5764 5765 5765 5766 5767
5672 5673 5676 5679 5682 5683 5683 5684 5686 5688 5691 5693 5695 5696 5698 5699 5699 5700 5701 5703 5705 5705 5705 5707 5709 5709 5711 5713 5713 5715 5718 5720 5720 5721 5722 5723 5723 5723 5724 5726 5726 5726 5727 5728 5730 5730 5731 5733 5735 5735 5735 5736 5738 5740 5742 5743 5744 5744 5745 5747 5747 5749 5751 5752 5752 5753 5754 5755 5755 5755 5756 5756 5757 5757 5757 5758 5759 5760 5760 5760 5761 5761 5762 5763 5763 5764
5669 5671 5673 5675 5678 5680 5681 5681 5683 5685 5688 5690 5690 5691 5693 5695 5695 5697 5698 5700 5701 5702 5703 5704 5706 5707 5709 5710 5711 5712 5713 5715 5717 5718 5719 5720 5720 5721 5722 5723 5725 5725 5725 5726 5727 5728 5730 5731 5732 5733 5733 5734 5735 5736 5737 5739 5739 5739 5741 5743 5745 5746 5747 5748 5748 5749 5750 5750 5751 5752 5752 5753 5753 5753 5753 5753 5754 5756 5757 5758 5758 5758 5759 5760 5761 5762
5666 5668 5670 5672 5674 5676 5679 5680 5681 5683 5685 5686 5687 5688 5689 5690 5691 5694 5696 5697 5699 5700 5700 5702 5704 5705 5707 5708 5709 5710 5711 5712 5713 5714 5715 5716 5716 5718 5719 5720 5722 5723 5722 5724 5725 5727 5729 5730 5731 5731 5732 5732 5733 5733 5734 5735 5735 5735 5738 5740 5742 5744 5744 5745 5746 5747 5747 5747 5747 5748 5749 5749 5749 5749 5749 5750 5750 5752 5753 5754 5755 5755 5756 5757 5758 5758
5663 5664 5666 5669 5670 5672 5675 5677 5678 5680 5681 5682 5683 5685 5687 5688 5690 5692 5693 5694 5696 5696 5697 5700 5701 5703 5706 5706 5707 5708 5709 5711 5712 5713 5713 5714 5715 5717 5718 5718 5720 5720 5719 5721 5723 5725 5726 5727 5728 5730 5731 5731 5731 5730 5730 5732 5732 5733 5735 5737 5739 5740 5740 5741 5742 5742 5743 5744 5745 5745 5744 5745 5745 5745 5745 5747 5748 5749 5750 5751 5752 5752 5753 5754 5755 5756
5659 5661 5663 5665 5667 5669 5672 5675 5676 5678 5679 5680 5680 5682 5685 5687 5688 5690 5691 5691 5692 5693 5695 5697 5699 5701 5703 5704 5705 5706 5707 5709 5710 5711 5713 5714 5716 5716 5716 5716 5717 5718 5718 5719 5720 5722 5723 5724 5726 5727 5728 5729 5729 5727 5727 5729 5729 5729 5731 5734 5734 5735 5737 5738 5738 5738 5738 5739 5741 5741 5742 5743 5743 5743 5744 5746 5746 5747 5747 5748 5749 5750 5751 5752 5753 5753
5657 5658 5660 5662 5664 5666 5669 5671 5673 5675 5677 5677 5678 5680 5682 5684 5686 5688 5688 5689 5690 5691 5693 5695 5696 5699 5700 5701 5702 5702 5703 5706 5707 5708 5710 5712 5713 5714 5713 5713 5714 5716 5716 5718 5719 5721 5722 5722 5723 5723 5723 5724 5725 5724 5724 5726 5727 5727 5729 5731 5731 5732 5734 5735 5735 5736 5736 5737 5738 5739 5740 5741 5741 5742 5744 5745 5744 5745 5745 5746 5747 5748 5749 5750 5751 5751
5654 5656 5658 5659 5661 5663 5665 5667 5670 5672 5673 5674 5675 5677 5679 5680 5682 5684 5685 5686 5688 5690 5691 5692 5694 5696 5697 5697 5698 5699 5700 5702 5703 5703 5706 5708 5709 5709 5709 5710 5712 5713 5714 5715 5716 5717 5718 5719 5720 5720 5721 5721 5722 5722 5722 5723 5725 5726 5727 5728 5729 5729 5731 5733 5732 5733 5734 5734 5735 5737 5738 5738 5739 5741 5742 5743 5742 5742 5743 5743 5744 5746 5747 5747 5748 5749
5651 5653 5654 5657 5659 5660 5662 5663 5666 5668 5669 5670 5671 5673 5675 5676 5678 5680 5681 5683 5686 5688 5689 5690 5692 5694 5695 5695 5697 5697 5697 5698 5699 5700 5701 5704 5705 5705 5706 5708 5710 5711 5712 5712 5713 5714 5715 5716 5716 5717 5718 5719 5718 5718 5719 5720 5722 5724 5725 5726 5727 5727 5730 5732 5730 5730 5731 5732 5733 5735 5736 5736 5737 5738 5740 5740 5739 5740 5741 5742 5743 5743 5744 5744 5745 5746
5649 5650 5652 5654 5655 5657 5659 5660 5662 5664 5666 5666 5666 5668 5671 5672 5674 5676 5678 5680 5682 5684 5685 5687 5689 5691 5692 5693 5694 5695 5694 5695 5696 5697 5698 5700 5702 5703 5704 5707 5708 5708 5708 5709 5710 5711 5713 5713 5714 5714 5715 5715 5715 5715 5716 5717 5718 5721 5723 5724 5725 5726 5727 5729 5729 5730 5731 5732 5732 5733 5735 5734 5734 5735 5737 5737 5737 5738 5739 5739 5741 5741 5741 5741 5742 5742
5646 5648 5649 5651 5653 5654 5656 5656 5658 5661 5662 5663 5663 5664 5666 5668 5671 5673 5674 5676 5678 5680 5681 5683 5685 5687 5689 5690 5690 5691 5693 5694 5694 5694 5695 5697 5699 5701 5703 5704 5704 5704 5705 5706 5707 5708 5710 5710 5711 5711 5712 5712 5712 5713 5713 5714 5715 5717 5719 5720 5722 5724 5725 5727 5727 5729 5730 5730 5730 5731 5732 5732 5732 5732 5733 5734 5735 5735 5736 5737 5738 5738 5738 5739 5739 5739
5644 5645 5647 5649 5650 5651 5653 5653 5654 5656 5658 5659 5661 5662 5663 5665 5667 5670 5671 5672 5674 5676 5678 5679 5680 5682 5685 5686 5687 5688 5690 5691 5691 5691 5692 5693 5695 5698 5699 5700 5700 5701 5702 5702 5703 5704 5706 5706 5707 5708 5709 5709 5709 5710 5710 5711 5712 5713 5714 5715 5717 5720 5722 5723 5724 5725 5726 5726 5727 5728 5728 5729 5729 5730 5730 5731 5731 5731 5732 5734 5735 5735 5735 5735 5735 5736
5641 5642 5644 5646 5647 5649 5650 5651 5652 5653 5655 5657 5658 5659 5660 5662 5663 5666 5668 5669 5670 5672 5673 5675 5676 5678 5680 5683 5684 5685 5686 5687 5688 5688 5689 5689 5691 5694 5695 5696 5697 5697 5698 5698 5699 5700 5701 5702 5702 5703 5704 5705 5706 5707 5707 5707 5708 5709 5710 5711 5713 5715 5716 5718 5719 5720 5721 5721 5722 5723 5723 5724 5724 5725 5725 5726 5727 5728 5729 5730 5731 5731 5731 5731 5731 5731
5639 5640 5641 5643 5645 5646 5647 5648 5649 5650 5653 5655 5656 5657 5657 5658 5659 5661 5663 5663 5664 5666 5668 5670 5672 5675 5678 5680 5680 5680 5681 5682 5683 5685 5686 5686 5687 5689 5691 5692 5693 5694 5694 5695 5695 5695 5697 5698 5698 5699 5701 5702 5703 5703 5703 5703 5704 5705 5706 5708 5709 5710 5711 5712 5714 5714 5715 5715 5716 5717 5718 5718 5719 5719 5720 5720 5722 5723 5724 5724 5725 5725 5726 5726 5727 5727
5636 5638 5639 5641 5642 5643 5644 5646 5647 5649 5651 5652 5653 5654 5654 5655 5656 5657 5658 5659 5660 5661 5663 5666 5669 5672 5675 5676 5675 5675 5676 5677 5679 5682 5683 5683 5683 5684 5686 5687 5689 5690 5691 5692 5692 5693 5694 5695 5695 5696 5698 5700 5700 5700 5700 5700 5700 5701 5703 5704 5705 5706 5706 5707 5708 5708 5709 5710 5711 5712 5712 5713 5714 5715 5715 5716 5716 5717 5718 5718 5718 5719 5720 5720 5721 5721
5634 5635 5636 5638 5639 5640 5642 5643 5645 5646 5648 5649 5650 5651 5652 5652 5653 5654 5655 5656 5657 5658 5659 5663 5665 5668 5670 5670 5670 5671 5673 5674 5676 5677 5678 5679 5680 5680 5682 5683 5685 5686 5687 5688 5689 5690 5691 5691 5692 5693 5695 5696 5696 5696 5696 5696 5696 5696 5698 5700 5701 5701 5701 5701 5702 5703 5704 5704 5706 5707 5708 5708 5709 5710 5711 5711 5712 5712 5712 5712 5713 5713 5714 5714 5715 5715
5631 5632 5633 5635 5636 5637 5638 5640 5642 5643 5645 5646 5646 5647 5649 5650 5650 5651 5651 5652 5654 5655 5657 5659 5661 5663 5665 5665 5666 5668 5670 5671 5672 5673 5674 5675 5676 5677 5678 5679 5680 5682 5683 5684 5685 5686 5687 5687 5688 5689 5690 5691 5691 5692 5692 5692 5692 5692 5692 5694 5696 5696 5696 5695 5697 5698 5699 5699 5700 5701 5702 5703 5704 5705 5705 5706 5706 5706 5706 5707 5707 5707 5708 5708 5708 5709
5628 5630 5631 5632 5633 5634 5636 5637 5638 5640 5642 5643 5643 5645 5647 5647 5647 5648 5648 5649 5652 5653 5654 5656 5658 5659 5660 5661 5662 5665 5666 5667 5668 5669 5670 5671 5672 5673 5675 5676 5676 5677 5678 5679 5680 5681 5682 5683 5683 5684 5685 5686 5686 5687 5688 5688 5688 5688 5688 5689 5691 5691 5691 5691 5692 5693 5694 5694 5695 5696 5697 5697 5698 5698 5699 5699 5700 5700 5700 5700 5700 5700 5701 5701 5702 5702
5626 5627 5628 5629 5630 5632 5633 5634 5635 5636 5638 5639 5640 5643 5645 5645 5645 5645 5645 5646 5649 5651 5652 5653 5655 5655 5655 5657 5660 5661 5662 5663 5665 5666 5666 5667 5668 5669 5670 5671 5671 5673 5674 5675 5675 5676 5676 5677 5678 5678 5679 5680 5681 5682 5683 5683 5683 5684 5684 5685 5685 5686 5686 5687 5688 5689 5689 5689 5690 5690 5691 5691 5692 5693 5693 5693 5693 5693 5694 5694 5693 5693 5694 5694 5694 5694
5623 5624 5625 5627 5628 5628 5629 5630 5632 5633 5634 5636 5637 5639 5641 5642 5642 5642 5642 5645 5647 5649 5650 5651 5651 5652 5653 5654 5656 5658 5659 5660 5661 5662 5662 5662 5663 5664 5665 5666 5666 5668 5669 5670 5670 5670 5671 5672 5672 5673 5674 5675 5676 5676 5677 5678 5678 5679 5679 5680 5680 5680 5681 5682 5683 5684 5684 5685 5685 5685 5686 5686 5687 5687 5688 5688 5688 5688 5688 5687 5687 5687 5687 5687 5687 5687
5621 5622 5623 5623 5624 5625 5626 5628 5629 5630 5630 5632 5634 5636 5637 5637 5637 5638 5640 5643 5645 5646 5647 5648 5649 5650 5651 5651 5652 5653 5654 5655 5657 5657 5657 5657 5658 5660 5661 5661 5662 5663 5664 5664 5665 5666 5666 5666 5667 5668 5668 5669 5670 5671 5671 5672 5672 5673 5673 5674 5674 5675 5676 5677 5678 5679 5680 5680 5680 5680 5680 5681 5681 5681 5682 5682 5682 5682 5682 5681 5681 5681 5680 5680 5680 5680
5619 5621 5620 5619 5620 5622 5623 5625 5626 5626 5627 5629 5631 5632 5633 5633 5632 5635 5638 5640 5640 5641 5643 5645 5646 5647 5647 5647 5647 5648 5649 5650 5651 5652 5652 5653 5654 5655 5656 5656 5657 5658 5659 5659 5660 5661 5661 5661 5662 5663 5663 5663 5664 5665 5665 5666 5666 5666 5667 5667 5668 5669 5670 5671 5672 5673 5673 5673 5674 5674 5674 5674 5674 5674 5675 5675 5675 5675 5675 5674 5674 5673 5673 5672 5673 5673
5616 5618 5617 5617 5617 5619 5620 5622 5623 5623 5624 5626 5628 5628 5629 5629 5629 5631 5634 5635 5636 5636 5638 5639 5640 5641 5642 5642 5642 5644 5645 5645 5646 5646 5647 5648 5649 5650 5651 5651 5652 5653 5653 5654 5654 5655 5656 5657 5657 5658 5657 5658 5658 5659 5659 5659 5659 5660 5660 5661 5661 5662 5663 5664 5665 5665 5665 5665 5665 5665 5666 5666 5666 5666 5666 5667 5667 5666 5666 5666 5666 5665 5665 5664 5664 5664
5612 5615 5615 5615 5615 5617 5618 5619 5620 5620 5621 5623 5624 5624 5625 5626 5626 5627 5629 5630 5630 5632 5633 5633 5633 5635 5636 5636 5637 5639 5640 5641 5641 5641 5642 5643 5643 5644 5646 5646 5647 5648 5648 5648 5649 5650 5651 5651 5652 5652 5652 5652 5652 5653 5653 5653 5653 5653 5654 5655 5655 5655 5656 5657 5657 5657 5657 5657 5657 5657 5658 5658 5658 5658 5658 5658 5657 5657 5657 5656 5656 5656 5655 5654 5654 5654
5609 5611 5612 5612 5613 5614 5615 5616 5617 5617 5617 5619 5621 5621 5621 5622 5622 5623 5624 5625 5625 5627 5628 5628 5628 5629 5630 5631 5632 5633 5635 5636 5636 5637 5637 5638 5638 5640 5641 5641 5641 5643 5643 5642 5643 5644 5645 5645 5646 5646 5645 5645 5646 5647 5647 5647 5646 5647 5648 5649 5649 5648 5649 5649 5649 5649 5649 5649 5649 5649 5649 5649 5649 5649 5648 5648 5647 5647 5647 5646 5646 5646 5645 5644 5643 5642
5606 5607 5608 5608 5609 5610 5611 5611 5612 5613 5614 5615 5617 5617 5617 5617 5618 5619 5620 5620 5620 5621 5623 5623 5624 5624 5625 5626 5627 5628 5629 5630 5631 5631 5632 5632 5633 5635 5637 5635 5635 5636 5636 5635 5636 5638 5639 5639 5640 5640 5638 5638 5640 5641 5640 5640 5640 5641 5642 5642 5642 5642 5642 5642 5642 5641 5641 5641 5641 5640 5640 5640 5640 5639 5639 5638 5638 5637 5637 5636 5636 5636 5635 5634 5633 5632
5602 5603 5604 5605 5605 5605 5606 5607 5608 5609 5610 5611 5612 5613 5612 5612 5613 5614 5615 5615 5616 5617 5617 5618 5619 5619 5620 5620 5621 5623 5623 5624 5625 5625 5626 5626 5628 5630 5631 5630 5629 5629 5630 5629 5630 5631 5632 5633 5633 5632 5631 5631 5633 5634 5633 5633 5634 5634 5635 5635 5635 5635 5635 5635 5635 5634 5634 5633 5633 5632 5631 5631 5630 5629 5629 5628 5627 5627 5626 5626 5625 5625 5625 5624 5623 5622
5599 5599 5600 5601 5600 5601 5602 5602 5603 5605 5606 5607 5607 5607 5607 5607 5608 5609 5610 5610 5611 5611 5611 5612 5613 5614 5614 5615 5616 5617 5618 5618 5618 5619 5620 5621 5623 5624 5624 5624 5623 5622 5623 5624 5624 5625 5627 5626 5625 5625 5625 5626 5627 5627 5626 5627 5627 5627 5628 5628 5628 5628 5627 5627 5627 5627 5626 5625 5624 5623 5622 5621 5620 5619 5619 5618 5617 5616 5615 5614 5614 5614 5614 5613 5612 5611
5597 5596 5597 5597 5597 5597 5598 5598 5599 5600 5601 5603 5603 5602 5602 5602 5604 5605 5605 5605 5605 5605 5604 5605 5607 5607 5608 5609 5610 5611 5612 5612 5611 5612 5614 5616 5617 5618 5618 5617 5616 5616 5617 5617 5618 5619 5620 5619 5618 5618 5619 5620 5620 5620 5620 5620 5621 5620 5620 5620 5620 5620 5620 5620 5620 5619 5618 5617 5616 5615 5614 5612 5611 5610 5609 5609 5608 5607 5605 5603 5602 5602 5602 5602 5600 5598
5595 5594 5594 5594 5594 5594 5593 5594 5595 5595 5596 5597 5598 5598 5598 5598 5599 5600 5599 5599 5599 5599 5598 5599 5600 5601 5601 5602 5603 5605 5606 5605 5605 5605 5607 5609 5611 5612 5611 5610 5610 5610 5611 5610 5611 5612 5612 5611 5611 5611 5612 5612 5612 5613 5613 5613 5613 5612 5612 5613 5612 5612 5612 5612 5611 5610 5609 5608 5607 5606 5604 5603 5602 5601 5600 5599 5598 5597 5596 5594 5592 5590 5590 5590 5590 5588